North Vernon, Indiana, United States (47265)
Lat: 39.01N, Lon: 85.62W
Wx Zone: INZ072
Local Info
Past Weather Observations for Saturday, July 23, 2016

NOTE: This archive is for the closest National Weather Service station to North Vernon. Information may differ from the station used for current weather conditions.

Click here for Long-term Archive

Time Weather Temperature Dewpoint Humidity Pressure Winds Precip Visibility
23:53
Clear
77°F / 25°C 72°F / 22°C 83% 30.01 in
(1016 mb)
Calm - 10SM
22:53
Clear
77°F / 25°C 73°F / 23°C 89% 30.01 in
(1016 mb)
Calm - 10SM
21:53
Clear
79°F / 26°C 73°F / 23°C 84% 30.01 in
(1016 mb)
SE 3.5 mph
(SE 6 kph)
- 10SM
20:53
Clear
81°F / 27°C 75°F / 24°C 84% 29.98 in
(1015 mb)
SSE 4.6 mph
(SSE 7 kph)
- 10SM
19:53
Clear
86°F / 30°C 75°F / 24°C 70% 29.98 in
(1015 mb)
Calm - 10SM
18:53
Clear
88°F / 31°C 75°F / 24°C 66% 29.95 in
(1014 mb)
SSE 3.5 mph
(SSE 6 kph)
- 10SM
17:53
Clear
90°F / 32°C 73°F / 23°C 59% 29.95 in
(1014 mb)
SSE 4.6 mph
(SSE 7 kph)
- 10SM
16:53
Clear
90°F / 32°C 73°F / 23°C 59% 29.98 in
(1015 mb)
S 8.1 mph
(S 13 kph)
- 10SM
15:53
Clear
90°F / 32°C 73°F / 23°C 59% 29.98 in
(1015 mb)
SW 9.2 mph
(SW 15 kph)
- 10SM
14:53
Clear
90°F / 32°C 72°F / 22°C 55% 30.01 in
(1016 mb)
SW 3.5 mph
(SW 6 kph)
- 10SM
13:53
Partly Cloudy
90°F / 32°C 72°F / 22°C 55% 30.01 in
(1016 mb)
SW 4.6 mph
(SW 7 kph)
- 10SM
12:53
Mostly Cloudy
90°F / 32°C 72°F / 22°C 55% 30.01 in
(1016 mb)
NW 5.8 mph
(NW 9 kph)
- 10SM
11:53
Clear
88°F / 31°C 72°F / 22°C 59% 30.04 in
(1017 mb)
Calm - 10SM
10:53
Mostly Cloudy
86°F / 30°C 73°F / 23°C 66% 30.04 in
(1017 mb)
S 4.6 mph
(S 7 kph)
- 10SM
09:53
Partly Cloudy
84°F / 29°C 73°F / 23°C 70% 30.04 in
(1017 mb)
Calm - 10SM
08:53
Clear
82°F / 28°C 73°F / 23°C 74% 30.04 in
(1017 mb)
Calm - 10SM
07:53
Clear
79°F / 26°C 73°F / 23°C 84% 30.04 in
(1017 mb)
Calm - 10SM
06:53
Clear
73°F / 23°C 72°F / 22°C 94% 30.04 in
(1017 mb)
Calm - 8SM
05:53
Partly Cloudy
70°F / 21°C 66°F / 19°C 88% 30.01 in
(1016 mb)
Calm - 7SM
05:47
Partly Cloudy
Fog And Mist
70°F / 21°C 66°F / 19°C 88% 30.01 in
(1016 mb)
NE 3.5 mph
(NE 6 kph)
- 3SM
05:44
Partly Cloudy
Fog And Mist
70°F / 21°C 66°F / 19°C 88% 30.01 in
(1016 mb)
Calm - 1 1/4SM
05:33
Obscured
Fog And Mist
70°F / 21°C 66°F / 19°C 88% 30.01 in
(1016 mb)
ENE 4.6 mph
(ENE 7 kph)
- 3/4SM
05:25
Clear
Fog And Mist
70°F / 21°C 66°F / 19°C 88% 30.01 in
(1016 mb)
E 4.6 mph
(E 7 kph)
- 3/4SM
05:14
Clear
Fog And Mist
70°F / 21°C 66°F / 19°C 88% 30.01 in
(1016 mb)
Calm - 1 3/4SM
04:53
Clear
72°F / 22°C 68°F / 20°C 88% 30.01 in
(1016 mb)
Calm - 10SM
03:53
Clear
Fog And Mist
72°F / 22°C 68°F / 20°C 88% 30.01 in
(1016 mb)
Calm - 6SM
02:53
Clear
73°F / 23°C 70°F / 21°C 89% 30.04 in
(1017 mb)
Calm - 10SM
01:53
Clear
73°F / 23°C 70°F / 21°C 89% 30.04 in
(1017 mb)
Calm - 7SM
01:42
Partly Cloudy
73°F / 23°C 72°F / 22°C 94% 30.01 in
(1016 mb)
Calm - 7SM
01:35
Mostly Cloudy
Fog And Mist
75°F / 24°C 72°F / 22°C 89% 30.04 in
(1017 mb)
Calm - 3SM
01:31
Obscured
Fog And Mist
75°F / 24°C 72°F / 22°C 89% 30.04 in
(1017 mb)
Calm - 1SM
00:53
Obscured
Fog
75°F / 24°C 73°F / 23°C 94% 30.04 in
(1017 mb)
Calm - 1/4SM
00:14
Obscured
Fog
75°F / 24°C 72°F / 22°C 89% 30.04 in
(1017 mb)
Calm - 1/4SM
Time Weather Temperature Dewpoint Humidity Pressure Winds Precip Visibility


Weather for websites

WeatherForYou.com, LLC is not responsible for any damages or problems caused by this service. Current weather conditions are obtained from the closest station including government and personal stations which may have varying degrees of accuracy. Weather forecasts are derived from the NOAA NDFD. Like all things, this site belongs to Jesus Christ... He just trusts us to maintain it. If you have any questions or comments email webmaster@weatherforyou.com

Copyright © 2016, WeatherForYou.com LLC. All rights reserved.